This is the latest recevied weather packets stored in our database for station/object DG8SF-13. If no packets are shown the sender has not sent any weather packets the latest 10 day(s).
| Time | Temp. | Humidity | Pressure | Rain* | Wind** | Luminosity | Snow |
|---|---|---|---|---|---|---|---|
| 1787742675 | 27.78° C | 53% | 1016.3 hPa | 0 mm | - | - | - |
| 1787742353 | 27.22° C | 54% | 1016.3 hPa | 0 mm | - | - | - |
| 1787742040 | 27.22° C | 53% | 1016.3 hPa | 0 mm | - | - | - |
| 1787741730 | 27.78° C | 54% | 1016.5 hPa | 0 mm | - | - | - |
| 1787741416 | 26.67° C | 57% | 1016.5 hPa | 0 mm | - | - | - |
| 1787741105 | 26.11° C | 56% | 1016.6 hPa | 0 mm | - | - | - |
| 1787740792 | 26.67° C | 56% | 1016.7 hPa | 0 mm | - | - | - |
| 1787740482 | 26.11° C | 56% | 1016.7 hPa | 0 mm | - | - | - |
| 1787740157 | 26.11° C | 56% | 1016.7 hPa | 0 mm | - | - | - |
| 1787739833 | 25.56° C | 58% | 1016.7 hPa | 0 mm | - | - | - |
| 1787739520 | 25.56° C | 57% | 1016.8 hPa | 0 mm | - | - | - |
| 1787739214 | 25.56° C | 61% | 1016.8 hPa | 0 mm | - | - | - |
| 1787738896 | 26.67° C | 57% | 1016.9 hPa | 0 mm | - | - | - |
| 1787738586 | 26.67° C | 58% | 1016.8 hPa | 0 mm | - | - | - |
| 1787738272 | 26.67° C | 57% | 1016.8 hPa | 0 mm | - | - | - |
| 1787737951 | 25.56° C | 60% | 1016.9 hPa | 0 mm | - | - | - |
| 1787737600 | 25.56° C | 62% | 1016.9 hPa | 0 mm | - | - | - |
| 1787737278 | 24.44° C | 62% | 1017.1 hPa | 0 mm | - | - | - |
| 1787736963 | 24.44° C | 60% | 1017.2 hPa | 0 mm | - | - | - |
| 1787736653 | 25° C | 63% | 1017.2 hPa | 0 mm | - | - | - |
| 1787736339 | 23.89° C | 64% | 1017.3 hPa | 0 mm | - | - | - |
| 1787736018 | 23.33° C | 66% | 1017.3 hPa | 0 mm | - | - | - |
| 1787735692 | 24.44° C | 65% | 1017.3 hPa | 0 mm | - | - | - |
| 1787735383 | 23.89° C | 68% | 1017.3 hPa | 0 mm | - | - | - |
| 1787735056 | 22.78° C | 70% | 1017.3 hPa | 0 mm | - | - | - |
* Rain latest hour (hover to see other rain measurements)
** Current wind speed in m/s (hover to see current wind gust speed)